Weather History for K8D3 - August, 2013

Change the Weather History Date:

Tuesday, August 6, 2013

  Actual Average Record
Temperature  
Mean Temperature 72 °F 71 °F  
Max Temperature 85 °F 83 °F 100 °F (1933)
Min Temperature 58 °F 59 °F 45 °F (1902)
Degree Days  
Heating Degree Days 0 0  
Month to date heating degree days 6 0  
Since 1 June heating degree days 101 75  
Since 1 July heating degree days 32 13  
Cooling Degree Days 7 6  
Month to date cooling degree days 11 38  
Year to date cooling degree days 359 360  
Since 1 June cooling degree days 334 337  
Growing Degree Days 20 (Base 50)    
Moisture  
Dew Point 61 °F    
Average Humidity 76    
Maximum Humidity 100    
Minimum Humidity 51    
Precipitation  
Precipitation 0.00 in 0.10 in 3.02 in (1967)
Month to date precipitation 0.64 0.61  
Year to date precipitation 18.36 14.91  
Sea Level Pressure  
Sea Level Pressure 29.73 in    
Wind  
Wind Speed 10 mph (NW)    
Max Wind Speed 36 mph    
Max Gust Speed 49 mph    
T = Trace of Precipitation, MM = Missing Value Source: NWS Daily Summary

Daily Weather History Graph

Daily Weather History Graph

Search for Another Location

Airport or City:

Trip Planner

Search our weather history database for the weather conditions in past years. The results will help you decide how hot, cold, wet, or windy it might be!

Date:

Astronomy

Aug. 06, 2013 Rise Set
Actual Time 6:17 AM CDT 8:49 PM CDT
Civil Twilight 5:44 AM CDT 9:22 PM CDT
Nautical Twilight 5:01 AM CDT 10:04 PM CDT
Astronomical Twilight 4:13 AM CDT 10:52 PM CDT
Moon 6:13 AM CDT (8/6) 8:19 PM CDT (8/6)
Length of Visible Light 15h 38m
Length of Day
14h 31m
Waning Crescent, 0% of the Moon is Illuminated
Aug 6
Waning Crescent
Aug 6
New
Aug 14
First Quarter
Aug 20
Full
Aug 28
Last Quarter

Hourly Weather History & Observations

Time (CDT) Temp. Heat Index Dew Point Humidity Pressure Visibility Wind Dir Wind Speed Gust Speed Precip Events Conditions
12:56 AM 57.0 °F - 55.9 °F 96% 29.81 in - Calm Calm - N/A   Unknown
1:56 AM 59.0 °F - 57.9 °F 96% 29.80 in - SSW 3.5 mph - N/A   Unknown
2:56 AM 59.0 °F - 57.9 °F 96% 29.76 in - South 5.8 mph - N/A   Unknown
3:56 AM 60.1 °F - 59.0 °F 96% 29.72 in - SE 3.5 mph - N/A   Unknown
4:56 AM 60.1 °F - 59.0 °F 96% 29.73 in - South 6.9 mph - N/A   Unknown
5:56 AM 61.0 °F - 60.1 °F 97% 29.72 in - SSE 4.6 mph - N/A   Unknown
6:56 AM 61.0 °F - 60.1 °F 97% 29.71 in - South 4.6 mph - N/A   Unknown
7:56 AM 64.0 °F - 61.0 °F 90% 29.71 in - Variable 6.9 mph - N/A   Unknown
8:56 AM 70.0 °F - 60.1 °F 71% 29.70 in - WNW 12.7 mph 21.9 mph N/A   Unknown
9:56 AM 75.0 °F - 62.1 °F 64% 29.68 in - NW 11.5 mph 19.6 mph N/A   Unknown
10:56 AM 77.0 °F - 62.1 °F 60% 29.69 in - NW 9.2 mph - N/A   Unknown
11:56 AM 79.0 °F - 63.0 °F 58% 29.69 in - WNW 11.5 mph 19.6 mph N/A   Unknown
12:56 PM 80.1 °F 81.9 °F 64.9 °F 60% 29.69 in - West 10.4 mph - N/A   Unknown
1:56 PM 82.0 °F 84.1 °F 66.0 °F 58% 29.68 in - NW 10.4 mph - N/A   Unknown
2:56 PM 82.0 °F 83.4 °F 64.0 °F 54% 29.67 in - West 13.8 mph 24.2 mph N/A   Unknown
3:56 PM 82.9 °F 83.7 °F 62.1 °F 49% 29.65 in - West 12.7 mph 24.2 mph N/A   Unknown
4:56 PM 82.9 °F 83.7 °F 62.1 °F 49% 29.63 in - WNW 17.3 mph 23.0 mph N/A   Unknown
5:56 PM 77.0 °F - 59.0 °F 54% 29.70 in - North 34.5 mph 49.5 mph N/A   Unknown
6:04 PM 71.6 °F - 55.4 °F 57% 29.76 in - North 26.5 mph 49.5 mph N/A   Unknown
6:56 PM 66.9 °F - 61.0 °F 81% 29.76 in - North 11.5 mph - N/A   Unknown
7:56 PM 68.0 °F - 62.1 °F 81% 29.76 in - North 6.9 mph - N/A   Unknown
8:56 PM 64.9 °F - 63.0 °F 93% 29.78 in - NNW 5.8 mph - N/A   Unknown
9:56 PM 64.0 °F - 61.0 °F 90% 29.82 in - North 9.2 mph - N/A   Unknown
10:56 PM 64.0 °F - 60.1 °F 87% 29.83 in - NNE 10.4 mph - N/A   Unknown
11:56 PM 63.0 °F - 60.1 °F 90% 29.85 in - North 8.1 mph - N/A   Unknown